Terminal Aerodrome Forecast
Issued by NWS Twin Cities, MN

Home | Current Version | Previous Version | Graphics & Text | Print | Product List | Glossary On
Versions: 1 2 3 4 5 6 7 8 9 10 11 12 13 14 15 16 17 18 19 20
000
FTUS43 KMPX 211139
TAFEAU
TAF
KEAU 211139Z 2112/2212 00000KT 3SM BR SCT005 BKN080
      TEMPO 2112/2114 2SM BR BKN005
     FM211400 01004KT P6SM OVC060
     FM212200 05006KT P6SM OVC040
     FM220400 05007KT P6SM OVC030
     FM221000 04010KT 6SM -SN OVC020=

USA.gov is the U.S. government's official web portal to all federal, state and local government web resources and services.